This is the latest recevied weather packets stored in our database for station/object HG6IQI-10. If no packets are shown the sender has not sent any weather packets the latest 10 day(s).
| Time | Temp. | Humidity | Pressure | Rain* | Wind** | Luminosity | Snow |
|---|---|---|---|---|---|---|---|
| 1777386786 | 17.78° C | 23% | 1019 hPa | - | - | - | - |
| 1777385886 | 18.33° C | 24% | 1019.3 hPa | - | - | - | - |
| 1777384986 | 17.78° C | 26% | 1019.4 hPa | - | - | - | - |
| 1777384086 | 17.22° C | 27% | 1019.5 hPa | - | - | - | - |
| 1777383186 | 17.22° C | 28% | 1019.7 hPa | - | - | - | - |
| 1777382285 | 17.22° C | 29% | 1019.8 hPa | - | - | - | - |
| 1777381385 | 17.22° C | 28% | 1019.9 hPa | - | - | - | - |
| 1777380485 | 17.22° C | 29% | 1020 hPa | - | - | - | - |
| 1777379585 | 16.67° C | 29% | 1020.2 hPa | - | - | - | - |
| 1777378685 | 17.22° C | 28% | 1020.2 hPa | - | - | - | - |
| 1777377785 | 16.11° C | 29% | 1020.3 hPa | - | - | - | - |
| 1777376885 | 16.11° C | 29% | 1020.4 hPa | - | - | - | - |
| 1777375985 | 16.67° C | 29% | 1020.5 hPa | - | - | - | - |
| 1777375085 | 16.67° C | 28% | 1020.7 hPa | - | - | - | - |
| 1777374185 | 16.67° C | 29% | 1020.6 hPa | - | - | - | - |
| 1777373285 | 16.67° C | 28% | 1020.8 hPa | - | - | - | - |
| 1777372385 | 17.22° C | 29% | 1020.8 hPa | - | - | - | - |
| 1777370586 | 15.56° C | 28% | 1021.2 hPa | - | - | - | - |
| 1777369686 | 15.56° C | 30% | 1021.4 hPa | - | - | - | - |
| 1777368786 | 15.56° C | 30% | 1021.5 hPa | - | - | - | - |
| 1777367886 | 16.11° C | 30% | 1021.6 hPa | - | - | - | - |
| 1777366986 | 15° C | 30% | 1021.7 hPa | - | - | - | - |
| 1777366086 | 15.56° C | 30% | 1021.7 hPa | - | - | - | - |
| 1777365186 | 15.56° C | 32% | 1021.8 hPa | - | - | - | - |
| 1777364286 | 14.44° C | 31% | 1021.8 hPa | - | - | - | - |
* Rain since midnight (hover to see other rain measurements)
** Current wind speed in m/s (hover to see current wind gust speed)